DW9125 Weather Reports


time (UTC)temp
F
wind
direction
speed
knots
gust
knots
rain 1hr
in
rain 24hr
in
rain mn
in
humidity
%
barometer
mb
20260510100034 51 360 0.0 0.9 0.00 0.00 0.00 91 1006.7
20260510094528 51 360 0.0 0.9 0.00 0.00 0.00 90 1006.4
20260510093036 52 360 0.0 0.9 0.00 0.00 0.00 90 1006.3
20260510091522 52 360 0.0 0.9 0.00 0.00 0.00 90 1006.1
20260510090021 52 360 0.0 0.9 0.00 0.00 0.00 90 1006.0
20260510084528 52 360 0.0 0.9 0.00 0.00 0.00 90 1005.8
20260510083020 52 360 0.0 0.0 0.00 0.00 0.00 89 1005.6
20260510081525 52 360 0.0 0.9 0.00 0.00 0.00 89 1006.0
20260510080020 53 360 0.0 0.9 0.00 0.00 0.00 89 1005.9
20260510074519 53 360 0.0 0.9 0.00 0.00 0.00 88 1005.8
20260510073021 53 360 0.0 1.7 0.00 0.00 0.00 88 1005.9
20260510071523 53 360 0.0 2.6 0.00 0.00 0.00 88 1005.5
20260510070015 53 360 0.0 0.9 0.00 0.00 0.00 88 1005.5
20260510064514 53 360 0.0 0.9 0.00 0.00 0.00 88 1004.9
20260510063016 53 360 0.0 0.9 0.00 0.00 0.00 88 1005.1
20260510061526 53 360 0.0 1.7 0.00 0.00 0.00 86 1005.4
20260510060013 53 360 0.0 0.9 0.00 0.00 0.00 86 1005.2
20260510054512 53 360 0.0 0.9 0.00 0.00 0.00 86 1005.3
20260510053011 53 360 0.0 0.9 0.00 0.00 0.00 86 1005.6
20260510051510 53 360 0.0 0.9 0.00 0.00 0.00 85 1005.6
20260510050006 52 360 0.0 0.9 0.00 0.00 0.00 87 1005.5
20260510044504 52 360 0.0 1.7 0.00 0.00 0.00 88 1005.2
20260510043008 52 360 0.0 0.0 0.00 0.00 0.00 87 1005.5
20260510041502 51 360 0.0 2.6 0.00 0.00 0.00 88 1005.4
20260510034605 51 360 0.0 1.7 0.00 0.00 0.00 88 1005.1
20260510033113 51 360 0.0 0.9 0.00 0.00 0.00 88 1005.5
20260510031558 51 360 0.0 2.6 0.00 0.00 0.00 88 1005.6
20260510030052 51 360 0.0 0.9 0.00 0.00 0.00 89 1005.7
20260510024556 51 360 0.0 0.9 0.00 0.00 0.00 88 1006.1
20260510023052 51 360 0.0 1.7 0.00 0.00 0.00 87 1006.4
20260510021551 51 360 0.0 1.7 0.00 0.00 0.00 88 1006.5
20260510020050 51 360 0.0 0.9 0.00 0.00 0.00 87 1006.2
20260510014547 51 360 0.0 0.9 0.00 0.00 0.00 88 1006.1
20260510013052 51 360 0.0 0.0 0.00 0.00 0.00 86 1006.2
20260510011553 52 360 0.0 1.7 0.00 0.00 0.00 84 1006.4
20260510010046 52 360 0.0 1.7 0.00 0.00 0.00 85 1006.2
20260510004549 52 360 0.0 2.6 0.00 0.00 0.00 84 1006.4
20260510003103 52 360 0.0 1.7 0.00 0.00 0.00 85 1006.3
20260510001544 52 360 0.0 3.5 0.00 0.00 0.00 84 1006.3
20260510000047 52 360 0.0 1.7 0.00 0.00 0.00 85 1006.1
20260509234558 52 360 0.0 2.6 0.00 0.00 0.00 83 1006.3
20260509233043 52 360 0.0 1.7 0.00 0.00 0.00 82 1006.4
20260509231551 53 360 0.0 2.6 0.00 0.00 0.00 81 1006.4
20260509230043 53 360 0.0 2.6 0.00 0.00 0.00 81 1006.4
20260509224542 53 360 0.0 3.5 0.00 0.00 0.00 80 1006.4
20260509223037 54 360 0.0 3.5 0.00 0.00 0.00 80 1006.6
20260509221539 54 360 0.0 3.5 0.00 0.00 0.00 79 1006.5
20260509220037 54 360 0.0 1.7 0.00 0.00 0.00 80 1006.6
20260509214536 54 360 0.0 3.5 0.00 0.00 0.00 79 1006.6
20260509213040 55 360 0.0 2.6 0.00 0.00 0.00 77 1006.6
20260509211537 55 360 0.0 2.6 0.00 0.00 0.00 76 1006.7
20260509210030 55 360 0.0 13.0 0.00 0.00 0.00 77 1006.9
20260509204530 56 360 0.0 2.6 0.00 0.00 0.00 73 1007.1
20260509203034 56 360 0.0 1.7 0.00 0.00 0.00 71 1007.1
20260509201528 57 360 0.0 0.9 0.00 0.00 0.00 71 1007.2
20260509200026 57 360 0.0 0.9 0.00 0.00 0.00 72 1007.2
20260509194532 56 360 0.0 2.6 0.00 0.00 0.00 67 1007.2
20260509193024 56 360 0.0 0.9 0.00 0.00 0.00 66 1007.2
20260509191526 56 360 0.0 0.9 0.00 0.00 0.00 67 1007.2
20260509190021 56 360 0.0 1.7 0.00 0.00 0.00 67 1007.5
20260509184520 56 360 0.0 1.7 0.00 0.00 0.00 66 1007.4
20260509183023 56 360 0.0 1.7 0.00 0.00 0.00 64 1007.7
20260509181515 57 360 0.0 1.7 0.00 0.00 0.00 61 1007.9
20260509180013 57 360 0.0 1.7 0.00 0.00 0.00 62 1008.1
20260509174511 57 360 0.0 0.9 0.00 0.00 0.00 64 1008.3
20260509173010 57 360 0.0 0.9 0.00 0.00 0.00 59 1008.4
20260509171509 57 360 0.0 0.9 0.00 0.00 0.00 59 1008.5
20260509170007 57 360 0.0 0.9 0.00 0.00 0.00 59 1008.6
20260509164509 58 360 0.0 0.0 0.00 0.00 0.00 59 1008.8
20260509163002 57 360 0.0 2.6 0.00 0.00 0.00 57 1008.9
20260509161558 57 360 0.0 1.7 0.00 0.00 0.00 56 1009.1
20260509160058 56 360 0.0 0.0 0.00 0.00 0.00 57 1009.5
20260509154556 56 360 0.0 0.9 0.00 0.00 0.00 59 1009.8
20260509153048 55 360 0.0 1.7 0.00 0.00 0.00 60 1010.0
20260509151546 55 360 0.0 2.6 0.00 0.00 0.00 59 1010.3
20260509150043 55 360 0.0 1.7 0.00 0.00 0.00 58 1010.3
20260509144542 54 360 0.0 2.6 0.00 0.00 0.00 61 1010.3
20260509143038 54 360 0.0 1.7 0.00 0.00 0.00 58 1010.5
20260509141537 54 360 0.0 2.6 0.00 0.00 0.00 58 1010.6
20260509140033 53 360 0.0 2.6 0.00 0.00 0.00 64 1010.6
20260509134529 52 360 0.0 1.7 0.00 0.00 0.00 64 1010.5
20260509133027 51 360 0.0 3.5 0.00 0.00 0.00 63 1010.7
20260509131520 50 360 0.0 1.7 0.00 0.00 0.00 68 1010.9
20260509130016 49 360 0.0 3.5 0.00 0.00 0.00 68 1011.0
20260509124514 48 360 0.0 2.6 0.00 0.00 0.00 72 1011.2
20260509123008 48 360 0.0 3.5 0.00 0.00 0.00 70 1011.3
20260509121505 47 360 0.0 2.6 0.00 0.00 0.00 73 1011.3
20260509120002 47 360 0.0 2.6 0.00 0.00 0.00 74 1011.4
20260509114604 46 360 0.0 2.6 0.00 0.00 0.00 74 1011.4
20260509113057 46 360 0.0 1.7 0.00 0.00 0.00 75 1011.4
20260509111553 45 360 0.0 2.6 0.00 0.00 0.00 77 1011.4
20260509110050 45 360 0.0 2.6 0.00 0.00 0.00 77 1011.3
20260509104548 44 360 0.0 2.6 0.00 0.00 0.00 78 1011.2
20260509103044 44 360 0.0 2.6 0.00 0.00 0.00 77 1011.1
20260509101551 44 360 0.0 1.7 0.00 0.00 0.00 77 1011.0